Starlink 31267

operational
NORAD ID: 59468 Int'l Des: 2024-068 Owner: SPXS Country: US Constellation: starlink
LEOCIRCULAR

Über Starlink 31267

Beschreibung wird geladen...

Live-Position

3D-Globus wird geladen...

Nächste Überflüge

Höhenverlauf

Altitude vs Time

uPlot chart will show altitude changes over time

Zweizeiliger Elementsatz

1 59468U 24068P 25352.69060798 -.00000523 00000-0 -94812-5 0 9995
2 59468 43.0018 127.7412 0001239 277.7395 82.3316 15.27587063 96180
Epoch: 18. Dez. 2025 • Age: 26 hours

Aktueller Status

Höhe 485.7 km
Geschwindigkeit 7.63 km/s
Subsatellitenpunkt 37.17°N, 113.8°W
Startdatum 10. Apr. 2024
Alter 1.6 years
Typ internet

Technische Details

Klassifizierung Payload
Masse 730.00 kg
Trockenmasse 700.00 kg
Gesamtmasse 730.00 kg
Länge 0.30 m
Durchmesser 4.10 m
Spannweite 29.00 m
Form Box + pan
Hersteller SPXS
Bus-Typ Starlink V2M
Phasenstatus In Orbit
Besitzer/Staat SPXS/US

Große Konstellationen

Loading constellations...